Tracking 18840 objects as of 17-November-2017
HD Live streaming from Space Station
objects crossing your sky now

FENGYUN 1C DEB

Track FENGYUN 1C DEB now!
10-day predictions


NORAD ID: 30718
Int'l Code: 1999-025ASC
Perigee: 814.7 km
Apogee: 914.5 km
Inclination: 99.1 °
Period: 102.1 minutes
Semi major axis: 7235 km
RCS: 0.0177 m2 (small)
Launch date: May 10, 1999
Source: People's Republic of China (PRC)
Launch site: Taiyaun Space Center, China (TSC)

Note: This is SATELLITE DEBRIS
aabbcc
Your satellite tracking list
Your tracking list is empty




NASA's NSSDC Master Catalog

Two Line Element Set (TLE):
1 30718U 99025ASC 17321.54600243  .00000661  00000-0  38772-3 0  9995
2 30718  99.0871 344.1048 0068953 217.0957 296.1699 14.10563565551651
Source of the keplerian elements: AFSPC